| time (UTC) | temp C | wind direction | speed KPH | gust KPH | rain 1hr cm | rain 24hr cm | rain mn cm | humidity % | barometer mb |
| 20260903165121 | 29 | 266 | 4.8 | 14.5 | 0.00 | 1.07 | 0.46 | 75 | 1012.2 |
| 20260903164122 | 29 | 263 | 4.8 | 8.0 | 0.00 | 1.07 | 0.46 | 74 | 1012.2 |
| 20260903163122 | 30 | 252 | 4.8 | 8.0 | 0.00 | 1.07 | 0.46 | 73 | 1012.2 |
| 20260903162121 | 28 | 257 | 4.8 | 11.3 | 0.00 | 1.07 | 0.46 | 76 | 1012.2 |
| 20260903161123 | 28 | 257 | 4.8 | 12.9 | 0.00 | 1.07 | 0.46 | 78 | 1012.8 |
| 20260903160121 | 27 | 229 | 4.8 | 12.9 | 0.00 | 1.07 | 0.46 | 81 | 1012.8 |
| 20260903155142 | 27 | 252 | 8.0 | 16.1 | 0.00 | 1.07 | 0.46 | 79 | 1012.9 |
| 20260903154121 | 27 | 291 | 4.8 | 8.0 | 0.00 | 1.07 | 0.46 | 82 | 1012.7 |
| 20260903153123 | 27 | 257 | 4.8 | 14.5 | 0.00 | 1.07 | 0.46 | 83 | 1012.8 |
| 20260903152122 | 27 | 264 | 6.4 | 9.7 | 0.00 | 1.07 | 0.46 | 84 | 1012.8 |
| 20260903151143 | 27 | 251 | 6.4 | 12.9 | 0.00 | 1.07 | 0.46 | 83 | 1012.9 |
| 20260903150123 | 27 | 283 | 4.8 | 11.3 | 0.00 | 1.07 | 0.46 | 86 | 1012.9 |
| 20260903145121 | 26 | 313 | 4.8 | 11.3 | 0.00 | 1.07 | 0.46 | 89 | 1012.8 |
| 20260903144122 | 26 | 219 | 4.8 | 9.7 | 0.00 | 1.07 | 0.46 | 90 | 1012.7 |
| 20260903143124 | 25 | 256 | 6.4 | 14.5 | 0.00 | 1.07 | 0.46 | 90 | 1012.9 |
| 20260903142123 | 25 | 261 | 6.4 | 12.9 | 0.00 | 1.07 | 0.46 | 91 | 1012.7 |
| 20260903141122 | 25 | 237 | 6.4 | 14.5 | 0.00 | 1.07 | 0.46 | 92 | 1013.1 |
| 20260903140121 | 25 | 259 | 6.4 | 14.5 | 0.00 | 1.07 | 0.46 | 95 | 1013.1 |
| 20260903135121 | 23 | 252 | 4.8 | 8.0 | 0.00 | 1.07 | 0.46 | 99 | 1013.2 |
| 20260903134121 | 23 | 260 | 6.4 | 14.5 | 0.00 | 1.07 | 0.46 | 99 | 1013.4 |
| 20260903133126 | 22 | 254 | 4.8 | 9.7 | 0.00 | 1.07 | 0.46 | 99 | 1013.2 |
| 20260903132122 | 22 | 229 | 3.2 | 6.4 | 0.00 | 1.07 | 0.46 | 99 | 1013.5 |
| 20260903131122 | 21 | 245 | 4.8 | 8.0 | 0.00 | 1.07 | 0.46 | 99 | 1013.5 |
| 20260903130121 | 21 | 243 | 3.2 | 6.4 | 0.00 | 1.07 | 0.46 | 99 | 1013.5 |
| 20260903125124 | 21 | 246 | 3.2 | 6.4 | 0.00 | 1.07 | 0.46 | 99 | 1013.6 |
| 20260903124121 | 21 | 189 | 1.6 | 4.8 | 0.00 | 1.07 | 0.46 | 99 | 1013.6 |
| 20260903123122 | 21 | 202 | 1.6 | 4.8 | 0.00 | 1.07 | 0.46 | 99 | 1013.5 |
| 20260903122125 | 21 | 201 | 1.6 | 4.8 | 0.00 | 1.07 | 0.46 | 99 | 1014.0 |
| 20260903121142 | 21 | 241 | 1.6 | 4.8 | 0.00 | 1.07 | 0.46 | 99 | 1013.9 |
| 20260903120123 | 21 | 263 | 0.0 | 3.2 | 0.00 | 1.07 | 0.46 | 99 | 1013.9 |
| 20260903115128 | 21 | 270 | 0.0 | 0.0 | 0.00 | 1.07 | 0.46 | 99 | 1013.7 |
| 20260903114122 | 21 | 180 | 0.0 | 0.0 | 0.00 | 1.07 | 0.46 | 99 | 1013.8 |
| 20260903113121 | 21 | 45 | 0.0 | 0.0 | 0.00 | 1.07 | 0.46 | 99 | 1013.5 |
| 20260903112124 | 21 | 338 | 0.0 | 0.0 | 0.00 | 1.07 | 0.46 | 99 | 1013.2 |
| 20260903111122 | 21 | 270 | 0.0 | 0.0 | 0.00 | 1.07 | 0.46 | 99 | 1013.6 |
| 20260903110121 | 21 | 248 | 0.0 | 0.0 | 0.00 | 1.07 | 0.46 | 99 | 1013.6 |
| 20260903105122 | 21 | 23 | 0.0 | 0.0 | 0.00 | 1.07 | 0.46 | 99 | 1013.8 |
| 20260903104143 | 21 | 339 | 1.6 | 8.0 | 0.00 | 1.07 | 0.46 | 99 | 1013.7 |
| 20260903103121 | 21 | 266 | 3.2 | 6.4 | 0.00 | 1.07 | 0.46 | 99 | 1013.5 |
| 20260903102123 | 21 | 248 | 4.8 | 6.4 | 0.00 | 1.07 | 0.46 | 99 | 1013.2 |
| 20260903101122 | 21 | 258 | 3.2 | 6.4 | 0.00 | 1.07 | 0.46 | 99 | 1013.1 |
| 20260903100143 | 21 | 295 | 3.2 | 6.4 | 0.00 | 1.07 | 0.46 | 99 | 1013.1 |
| 20260903095126 | 21 | 304 | 1.6 | 6.4 | 0.00 | 1.09 | 0.46 | 99 | 1013.5 |
| 20260903094121 | 21 | 233 | 3.2 | 6.4 | 0.00 | 1.09 | 0.46 | 99 | 1013.2 |
| 20260903093123 | 21 | 258 | 4.8 | 12.9 | 0.00 | 1.09 | 0.46 | 99 | 1013.1 |
| 20260903092121 | 21 | 262 | 4.8 | 8.0 | 0.00 | 1.09 | 0.46 | 99 | 1012.9 |
| 20260903091121 | 21 | 253 | 4.8 | 9.7 | 0.00 | 1.09 | 0.46 | 99 | 1012.9 |
| 20260903090142 | 21 | 256 | 3.2 | 8.0 | 0.03 | 1.09 | 0.46 | 99 | 1012.9 |
| 20260903085122 | 21 | 214 | 3.2 | 6.4 | 0.03 | 1.09 | 0.46 | 99 | 1013.1 |
| 20260903084123 | 21 | 240 | 1.6 | 6.4 | 0.03 | 1.09 | 0.46 | 99 | 1013.7 |
| 20260903083144 | 20 | 248 | 0.0 | 0.0 | 0.05 | 1.09 | 0.46 | 99 | 1014.0 |
| 20260903082121 | 20 | 315 | 0.0 | 0.0 | 0.05 | 1.09 | 0.46 | 99 | 1013.8 |
| 20260903081125 | 20 | 23 | 0.0 | 0.0 | 0.10 | 1.09 | 0.46 | 99 | 1013.6 |
| 20260903075122 | 20 | 23 | 0.0 | 0.0 | 0.13 | 1.07 | 0.43 | 99 | 1013.8 |
| 20260903074121 | 20 | 135 | 0.0 | 3.2 | 0.15 | 1.07 | 0.43 | 99 | 1014.1 |
| 20260903073121 | 20 | 242 | 1.6 | 3.2 | 0.13 | 1.04 | 0.41 | 99 | 1014.2 |
| 20260903072122 | 20 | 236 | 1.6 | 4.8 | 0.13 | 1.04 | 0.41 | 99 | 1014.4 |
| 20260903071123 | 20 | 227 | 1.6 | 3.2 | 0.08 | 0.99 | 0.36 | 99 | 1014.6 |
| 20260903070122 | 20 | 231 | 1.6 | 4.8 | 0.08 | 0.97 | 0.33 | 99 | 1014.6 |
| 20260903065127 | 20 | 248 | 0.0 | 0.0 | 0.05 | 0.94 | 0.30 | 99 | 1014.6 |
| 20260903064122 | 20 | 270 | 0.0 | 0.0 | 0.05 | 0.91 | 0.28 | 99 | 1014.5 |
| 20260903063122 | 20 | 338 | 0.0 | 0.0 | 0.05 | 0.91 | 0.28 | 99 | 1014.4 |
| 20260903062122 | 20 | 233 | 0.0 | 3.2 | 0.10 | 0.91 | 0.28 | 99 | 1014.6 |
| 20260903061123 | 20 | 269 | 0.0 | 3.2 | 0.23 | 0.91 | 0.28 | 99 | 1014.4 |
| 20260903060142 | 20 | 177 | 1.6 | 3.2 | 0.23 | 0.89 | 0.25 | 99 | 1014.4 |
| 20260903055121 | 20 | 210 | 3.2 | 4.8 | 0.23 | 0.89 | 0.25 | 99 | 1014.8 |
| 20260903054121 | 20 | 116 | 1.6 | 3.2 | 0.23 | 0.86 | 0.23 | 99 | 1015.2 |
| 20260903053121 | 20 | 305 | 1.6 | 6.4 | 0.23 | 0.86 | 0.23 | 99 | 1016.2 |
| 20260903052122 | 20 | 288 | 4.8 | 11.3 | 0.18 | 0.81 | 0.18 | 99 | 1016.8 |
| 20260903051121 | 20 | 303 | 4.8 | 8.0 | 0.05 | 0.69 | 0.05 | 99 | 1016.1 |
| 20260903050122 | 20 | 287 | 1.6 | 4.8 | 0.03 | 0.66 | 0.03 | 99 | 1016.1 |
| 20260903045121 | 20 | 35 | 1.6 | 4.8 | 0.03 | 0.66 | 0.03 | 99 | 1016.2 |
| 20260903044143 | 20 | 113 | 0.0 | 3.2 | 0.00 | 0.64 | 0.00 | 99 | 1016.5 |
| 20260903043122 | 20 | 293 | 0.0 | 0.0 | 0.00 | 0.64 | 0.00 | 99 | 1016.2 |
| 20260903042142 | 20 | 203 | 0.0 | 0.0 | 0.00 | 0.64 | 0.00 | 99 | 1016.2 |
| 20260903041125 | 20 | 338 | 0.0 | 0.0 | 0.00 | 0.64 | 0.00 | 99 | 1016.4 |
| 20260903040121 | 20 | 270 | 0.0 | 0.0 | 0.00 | 0.64 | 0.00 | 99 | 1016.4 |
| 20260903035127 | 20 | 315 | 0.0 | 0.0 | 0.00 | 0.64 | 0.64 | 99 | 1016.5 |
| 20260903034121 | 20 | 105 | 1.6 | 3.2 | 0.00 | 0.64 | 0.64 | 99 | 1016.4 |
| 20260903033121 | 20 | 97 | 1.6 | 4.8 | 0.00 | 0.64 | 0.64 | 99 | 1016.1 |
| 20260903032123 | 20 | 95 | 1.6 | 4.8 | 0.00 | 0.64 | 0.64 | 99 | 1016.2 |
| 20260903031123 | 20 | 101 | 3.2 | 4.8 | 0.00 | 0.64 | 0.64 | 99 | 1016.2 |
| 20260903030121 | 20 | 106 | 4.8 | 6.4 | 0.00 | 0.64 | 0.64 | 99 | 1016.2 |
| 20260903025124 | 20 | 98 | 1.6 | 6.4 | 0.00 | 0.64 | 0.64 | 99 | 1016.6 |
| 20260903024122 | 20 | 90 | 0.0 | 0.0 | 0.00 | 0.64 | 0.64 | 99 | 1016.8 |
| 20260903023143 | 20 | 225 | 0.0 | 0.0 | 0.00 | 0.64 | 0.64 | 99 | 1016.8 |
| 20260903022123 | 20 | 69 | 1.6 | 3.2 | 0.00 | 0.64 | 0.64 | 99 | 1016.5 |
| 20260903021144 | 20 | 81 | 0.0 | 3.2 | 0.00 | 0.64 | 0.64 | 99 | 1016.4 |
| 20260903020121 | 20 | 113 | 0.0 | 0.0 | 0.00 | 0.64 | 0.64 | 99 | 1016.4 |
| 20260903015123 | 20 | 338 | 0.0 | 0.0 | 0.00 | 0.64 | 0.64 | 99 | 1016.9 |
| 20260903014121 | 20 | 164 | 1.6 | 6.4 | 0.00 | 0.64 | 0.64 | 99 | 1016.8 |
| 20260903013145 | 20 | 123 | 4.8 | 9.7 | 0.00 | 0.64 | 0.64 | 99 | 1016.9 |
| 20260903012125 | 20 | 104 | 3.2 | 4.8 | 0.00 | 0.64 | 0.64 | 99 | 1017.2 |
| 20260903011121 | 20 | 92 | 3.2 | 8.0 | 0.00 | 0.64 | 0.64 | 99 | 1017.4 |
| 20260903010122 | 20 | 106 | 3.2 | 6.4 | 0.00 | 0.64 | 0.64 | 99 | 1017.4 |
| 20260903005142 | 20 | 107 | 3.2 | 4.8 | 0.00 | 0.64 | 0.64 | 99 | 1017.8 |
| 20260903004142 | 20 | 70 | 3.2 | 6.4 | 0.00 | 0.64 | 0.64 | 99 | 1017.8 |
| 20260903003121 | 20 | 78 | 1.6 | 3.2 | 0.00 | 0.64 | 0.64 | 99 | 1017.5 |
| 20260903002142 | 20 | 118 | 1.6 | 4.8 | 0.00 | 0.64 | 0.64 | 99 | 1017.1 |
| 20260903001124 | 20 | 79 | 1.6 | 4.8 | 0.00 | 0.64 | 0.64 | 99 | 1016.8 |
| 20260903000121 | 20 | 109 | 3.2 | 6.4 | 0.00 | 0.64 | 0.64 | 99 | 1016.8 |
| 20260902235121 | 20 | 101 | 4.8 | 8.0 | 0.00 | 0.64 | 0.64 | 99 | 1016.8 |
| 20260902234121 | 20 | 110 | 3.2 | 8.0 | 0.00 | 0.64 | 0.64 | 99 | 1016.8 |
| 20260902233124 | 20 | 98 | 4.8 | 9.7 | 0.00 | 0.64 | 0.64 | 99 | 1016.6 |
| 20260902232122 | 20 | 113 | 4.8 | 8.0 | 0.00 | 0.64 | 0.64 | 99 | 1016.7 |
| 20260902231122 | 20 | 99 | 4.8 | 9.7 | 0.00 | 0.64 | 0.64 | 99 | 1017.0 |
| 20260902230123 | 20 | 103 | 4.8 | 8.0 | 0.00 | 0.64 | 0.64 | 99 | 1017.0 |
| 20260902225122 | 20 | 113 | 3.2 | 6.4 | 0.00 | 0.64 | 0.64 | 99 | 1017.2 |
| 20260902224123 | 20 | 93 | 4.8 | 9.7 | 0.00 | 0.64 | 0.64 | 99 | 1017.0 |
| 20260902223123 | 20 | 103 | 4.8 | 9.7 | 0.00 | 0.64 | 0.64 | 99 | 1017.8 |
| 20260902222123 | 20 | 91 | 4.8 | 6.4 | 0.00 | 0.64 | 0.64 | 99 | 1017.9 |
| 20260902221122 | 21 | 98 | 4.8 | 8.0 | 0.00 | 0.64 | 0.64 | 99 | 1018.0 |
| 20260902220124 | 21 | 110 | 3.2 | 6.4 | 0.00 | 0.64 | 0.64 | 99 | 1018.0 |
| 20260902215120 | 21 | 90 | 1.6 | 6.4 | 0.00 | 0.64 | 0.64 | 99 | 1018.0 |
| 20260902214143 | 21 | 97 | 3.2 | 6.4 | 0.00 | 0.64 | 0.64 | 99 | 1017.9 |
| 20260902213121 | 21 | 108 | 3.2 | 6.4 | 0.00 | 0.64 | 0.64 | 99 | 1017.8 |
| 20260902212120 | 21 | 125 | 4.8 | 8.0 | 0.00 | 0.64 | 0.64 | 99 | 1017.7 |
| 20260902211120 | 21 | 127 | 3.2 | 4.8 | 0.00 | 0.64 | 0.64 | 99 | 1017.5 |
| 20260902210120 | 21 | 127 | 4.8 | 8.0 | 0.00 | 0.64 | 0.64 | 99 | 1017.5 |
| 20260902205146 | 21 | 133 | 4.8 | 8.0 | 0.00 | 0.64 | 0.64 | 99 | 1017.4 |
| 20260902204121 | 20 | 112 | 4.8 | 6.4 | 0.46 | 0.64 | 0.64 | 99 | 1017.7 |
| 20260902203120 | 20 | 125 | 4.8 | 8.0 | 0.58 | 0.64 | 0.64 | 99 | 1017.9 |
| 20260902202120 | 20 | 135 | 4.8 | 8.0 | 0.61 | 0.64 | 0.64 | 99 | 1018.1 |
| 20260902201123 | 20 | 124 | 4.8 | 8.0 | 0.61 | 0.64 | 0.64 | 99 | 1017.9 |
| 20260902200122 | 20 | 125 | 3.2 | 4.8 | 0.61 | 0.64 | 0.64 | 99 | 1017.9 |
| 20260902195122 | 21 | 99 | 1.6 | 4.8 | 0.61 | 0.64 | 0.64 | 99 | 1018.2 |
| 20260902194121 | 21 | 302 | 0.0 | 3.2 | 0.15 | 0.18 | 0.18 | 98 | 1018.6 |
| 20260902193121 | 21 | 75 | 3.2 | 4.8 | 0.03 | 0.05 | 0.05 | 93 | 1018.2 |
| 20260902192144 | 22 | 94 | 3.2 | 4.8 | 0.00 | 0.03 | 0.03 | 90 | 1018.0 |
| 20260902191123 | 22 | 145 | 3.2 | 6.4 | 0.00 | 0.03 | 0.03 | 87 | 1017.9 |
| 20260902190121 | 23 | 114 | 4.8 | 11.3 | 0.00 | 0.03 | 0.03 | 84 | 1017.9 |
| 20260902185142 | 23 | 180 | 4.8 | 9.7 | 0.00 | 0.03 | 0.03 | 84 | 1018.0 |
| 20260902184121 | 23 | 113 | 6.4 | 14.5 | 0.00 | 0.03 | 0.03 | 84 | 1017.9 |
| 20260902183146 | 23 | 112 | 4.8 | 8.0 | 0.00 | 0.03 | 0.03 | 82 | 1017.9 |
| 20260902182127 | 24 | 154 | 3.2 | 8.0 | 0.00 | 0.03 | 0.03 | 81 | 1018.0 |
| 20260902181142 | 23 | 134 | 4.8 | 8.0 | 0.00 | 0.03 | 0.03 | 81 | 1018.2 |
| 20260902180121 | 23 | 96 | 6.4 | 9.7 | 0.00 | 0.03 | 0.03 | 80 | 1018.2 |
| 20260902175121 | 23 | 112 | 4.8 | 9.7 | 0.00 | 0.03 | 0.03 | 80 | 1018.2 |
| 20260902174121 | 23 | 105 | 4.8 | 8.0 | 0.00 | 0.03 | 0.03 | 82 | 1018.2 |
| 20260902173145 | 23 | 129 | 3.2 | 6.4 | 0.00 | 0.05 | 0.03 | 81 | 1018.5 |
| 20260902172122 | 23 | 119 | 3.2 | 6.4 | 0.00 | 0.05 | 0.03 | 82 | 1018.5 |
| 20260902171147 | 23 | 133 | 1.6 | 4.8 | 0.00 | 0.05 | 0.03 | 82 | 1018.6 |
| 20260902170123 | 23 | 128 | 3.2 | 6.4 | 0.00 | 0.05 | 0.03 | 82 | 1018.6 |